Time,TemperatureF,DewpointF,PressureIn,WindDirection,WindDirectionDegrees,WindSpeedMPH,WindSpeedGustMPH,Humidity,HourlyPrecipIn,Conditions,Clouds,dailyrainin,SolarRadiationWatts/m^2,SoftwareType,DateUTC
2013-02-18 00:06:00,25.1,18.9,29.78,SE,139,6.0,9.0,77,0.00,,,0.00,0,Wunderground v.1.15,2013-02-18 06:06:00,
2013-02-18 00:11:00,25.2,19.0,29.78,SSE,165,8.0,8.0,77,0.00,,,0.00,0,Wunderground v.1.15,2013-02-18 06:11:00,
2013-02-18 00:21:00,25.3,19.1,29.78,SSE,155,8.0,8.0,77,0.00,,,0.00,0,Wunderground v.1.15,2013-02-18 06:21:00,
2013-02-18 00:31:00,25.3,19.1,29.77,SSE,163,8.0,8.0,77,0.00,,,0.00,0,Wunderground v.1.15,2013-02-18 06:31:00,
2013-02-18 00:41:00,25.2,19.0,29.76,SSE,156,9.0,9.0,77,0.00,,,0.00,0,Wunderground v.1.15,2013-02-18 06:41:00,
2013-02-18 00:51:00,25.3,19.4,29.76,SSE,160,9.0,9.0,78,0.00,,,0.00,0,Wunderground v.1.15,2013-02-18 06:51:00,
2013-02-18 01:01:00,25.1,19.2,29.75,SSE,150,10.0,10.0,78,0.00,,,0.00,0,Wunderground v.1.15,2013-02-18 07:01:00,
2013-02-18 01:06:00,25.0,19.1,29.74,SE,145,14.0,14.0,78,0.00,,,0.00,0,Wunderground v.1.15,2013-02-18 07:06:00,
2013-02-18 01:16:00,25.0,19.1,29.74,SSE,149,13.0,13.0,78,0.00,,,0.00,0,Wunderground v.1.15,2013-02-18 07:16:00,
2013-02-18 01:26:00,24.9,19.3,29.73,SSE,154,9.0,10.0,79,0.00,,,0.00,0,Wunderground v.1.15,2013-02-18 07:26:00,
2013-02-18 01:36:00,25.0,19.4,29.72,SE,140,11.0,11.0,79,0.00,,,0.00,0,Wunderground v.1.15,2013-02-18 07:36:00,
2013-02-18 01:46:00,25.1,19.5,29.71,SE,144,13.0,13.0,79,0.00,,,0.00,0,Wunderground v.1.15,2013-02-18 07:46:00,
2013-02-18 01:51:00,25.1,19.5,29.71,SE,139,8.0,8.0,79,0.00,,,0.00,0,Wunderground v.1.15,2013-02-18 07:51:00,
2013-02-18 02:01:00,25.0,19.7,29.70,SSE,157,11.0,11.0,80,0.00,,,0.00,0,Wunderground v.1.15,2013-02-18 08:01:00,
2013-02-18 02:06:00,25.0,19.7,29.70,SSE,151,10.0,11.0,80,0.00,,,0.00,0,Wunderground v.1.15,2013-02-18 08:06:00,
2013-02-18 02:16:00,25.1,19.8,29.69,SE,140,7.0,8.0,80,0.00,,,0.00,0,Wunderground v.1.15,2013-02-18 08:16:00,
2013-02-18 02:21:00,25.2,19.9,29.69,SSE,154,10.0,10.0,80,0.00,,,0.00,0,Wunderground v.1.15,2013-02-18 08:21:00,
2013-02-18 02:31:00,25.2,19.9,29.69,SE,137,8.0,8.0,80,0.00,,,0.00,0,Wunderground v.1.15,2013-02-18 08:31:00,
2013-02-18 02:41:00,25.1,20.1,29.68,South,169,9.0,9.0,81,0.00,,,0.00,0,Wunderground v.1.15,2013-02-18 08:41:00,
2013-02-18 02:46:00,25.2,20.2,29.68,SSE,153,8.0,9.0,81,0.00,,,0.00,0,Wunderground v.1.15,2013-02-18 08:46:00,
2013-02-18 02:56:00,25.3,20.3,29.66,SE,142,7.0,9.0,81,0.00,,,0.00,0,Wunderground v.1.15,2013-02-18 08:56:00,
2013-02-18 03:06:00,25.5,20.5,29.66,SSE,151,9.0,9.0,81,0.00,,,0.00,0,Wunderground v.1.15,2013-02-18 09:06:00,
2013-02-18 03:16:00,25.7,20.7,29.66,SSE,159,8.0,8.0,81,0.00,,,0.00,0,Wunderground v.1.15,2013-02-18 09:16:00,
2013-02-18 03:21:00,25.8,20.8,29.65,SSE,163,12.0,12.0,81,0.00,,,0.00,0,Wunderground v.1.15,2013-02-18 09:21:00,
2013-02-18 03:31:00,26.0,21.0,29.64,SSE,156,5.0,5.0,81,0.00,,,0.00,0,Wunderground v.1.15,2013-02-18 09:31:00,
2013-02-18 03:41:00,26.0,21.0,29.64,SE,139,8.0,8.0,81,0.00,,,0.00,0,Wunderground v.1.15,2013-02-18 09:41:00,
2013-02-18 03:51:00,26.1,21.1,29.64,SSE,153,7.0,7.0,81,0.00,,,0.00,0,Wunderground v.1.15,2013-02-18 09:51:00,
2013-02-18 04:01:00,26.0,21.0,29.63,SSE,151,8.0,8.0,81,0.00,,,0.00,0,Wunderground v.1.15,2013-02-18 10:01:00,
2013-02-18 04:11:00,25.8,21.1,29.62,SSE,147,6.0,6.0,82,0.00,,,0.00,0,Wunderground v.1.15,2013-02-18 10:11:00,
2013-02-18 04:16:00,25.7,21.0,29.63,SSE,151,8.0,8.0,82,0.00,,,0.00,0,Wunderground v.1.15,2013-02-18 10:16:00,
2013-02-18 04:26:00,25.6,21.2,29.62,SSE,156,7.0,9.0,83,0.00,,,0.00,0,Wunderground v.1.15,2013-02-18 10:26:00,
2013-02-18 04:36:00,25.6,21.2,29.61,SSE,153,6.0,6.0,83,0.00,,,0.00,0,Wunderground v.1.15,2013-02-18 10:36:00,
2013-02-18 04:46:00,25.5,21.1,29.61,SE,137,5.0,8.0,83,0.00,,,0.00,0,Wunderground v.1.15,2013-02-18 10:46:00,
2013-02-18 04:56:00,25.5,21.3,29.61,SSE,149,4.0,6.0,84,0.00,,,0.00,0,Wunderground v.1.15,2013-02-18 10:56:00,
2013-02-18 05:06:00,25.3,20.9,29.61,SSE,152,7.0,7.0,83,0.00,,,0.00,0,Wunderground v.1.15,2013-02-18 11:06:00,
2013-02-18 05:11:00,25.1,20.9,29.60,SE,146,6.0,6.0,84,0.00,,,0.00,0,Wunderground v.1.15,2013-02-18 11:11:00,
2013-02-18 05:21:00,25.0,20.8,29.61,SE,138,3.0,3.0,84,0.00,,,0.00,0,Wunderground v.1.15,2013-02-18 11:21:00,
2013-02-18 05:31:00,25.2,21.0,29.60,SE,136,1.0,1.0,84,0.00,,,0.00,0,Wunderground v.1.15,2013-02-18 11:31:00,
2013-02-18 05:41:00,25.3,21.1,29.59,SE,140,4.0,4.0,84,0.00,,,0.00,0,Wunderground v.1.15,2013-02-18 11:41:00,
2013-02-18 05:51:00,25.4,21.5,29.59,SE,130,4.0,4.0,85,0.00,,,0.00,0,Wunderground v.1.15,2013-02-18 11:51:00,
2013-02-18 06:01:00,25.4,21.2,29.58,SE,139,4.0,4.0,84,0.00,,,0.00,0,Wunderground v.1.15,2013-02-18 12:01:00,
2013-02-18 06:06:00,25.5,21.6,29.58,SSE,149,6.0,6.0,85,0.00,,,0.00,0,Wunderground v.1.15,2013-02-18 12:06:00,
2013-02-18 06:16:00,25.6,21.7,29.58,SSE,148,5.0,5.0,85,0.00,,,0.00,0,Wunderground v.1.15,2013-02-18 12:16:00,
2013-02-18 06:26:00,25.7,21.8,29.57,SSE,148,7.0,7.0,85,0.00,,,0.00,0,Wunderground v.1.15,2013-02-18 12:26:00,
2013-02-18 06:36:00,25.8,21.6,29.56,SSE,154,2.0,9.0,84,0.00,,,0.00,0,Wunderground v.1.15,2013-02-18 12:36:00,
2013-02-18 06:46:00,25.7,21.8,29.57,SE,130,3.0,7.0,85,0.00,,,0.00,0,Wunderground v.1.15,2013-02-18 12:46:00,
2013-02-18 06:56:00,25.6,21.7,29.56,SE,139,3.0,6.0,85,0.00,,,0.00,0,Wunderground v.1.15,2013-02-18 12:56:00,
2013-02-18 07:06:00,25.5,21.6,29.56,SE,142,4.0,5.0,85,0.00,,,0.00,0,Wunderground v.1.15,2013-02-18 13:06:00,
2013-02-18 07:16:00,25.4,21.5,29.56,SSE,151,3.0,4.0,85,0.00,,,0.00,0,Wunderground v.1.15,2013-02-18 13:16:00,
2013-02-18 07:21:00,25.5,21.6,29.55,SE,144,3.0,3.0,85,0.00,,,0.00,0,Wunderground v.1.15,2013-02-18 13:21:00,
2013-02-18 07:31:00,25.8,22.2,29.55,SE,141,4.0,4.0,86,0.00,,,0.00,0,Wunderground v.1.15,2013-02-18 13:31:00,
2013-02-18 07:41:00,26.5,22.6,29.55,SSE,154,5.0,5.0,85,0.00,,,0.00,0,Wunderground v.1.15,2013-02-18 13:41:00,
2013-02-18 07:46:00,27.0,23.1,29.55,South,184,6.0,6.0,85,0.00,,,0.00,0,Wunderground v.1.15,2013-02-18 13:46:00,
2013-02-18 07:56:00,28.1,23.3,29.55,South,172,5.0,5.0,82,0.00,,,0.00,0,Wunderground v.1.15,2013-02-18 13:56:00,
2013-02-18 08:06:00,29.3,23.9,29.55,SSE,167,1.0,2.0,80,0.00,,,0.00,0,Wunderground v.1.15,2013-02-18 14:06:00,
2013-02-18 08:16:00,30.1,24.4,29.55,SSW,209,4.0,6.0,79,0.00,,,0.00,0,Wunderground v.1.15,2013-02-18 14:16:00,
2013-02-18 08:26:00,30.6,24.6,29.55,SSW,193,5.0,5.0,78,0.00,,,0.00,0,Wunderground v.1.15,2013-02-18 14:26:00,
2013-02-18 08:36:00,31.1,25.0,29.55,South,178,6.0,6.0,78,0.00,,,0.00,0,Wunderground v.1.15,2013-02-18 14:36:00,
2013-02-18 08:41:00,31.4,24.7,29.54,SSE,164,6.0,6.0,76,0.00,,,0.00,0,Wunderground v.1.15,2013-02-18 14:41:00,
2013-02-18 08:51:00,31.8,25.1,29.54,SSW,204,4.0,4.0,76,0.00,,,0.00,0,Wunderground v.1.15,2013-02-18 14:51:00,
2013-02-18 09:01:00,32.7,25.6,29.54,South,171,4.0,4.0,75,0.00,,,0.00,0,Wunderground v.1.15,2013-02-18 15:01:00,
2013-02-18 09:06:00,33.0,25.9,29.54,SSE,167,1.0,4.0,75,0.00,,,0.00,0,Wunderground v.1.15,2013-02-18 15:06:00,
2013-02-18 09:16:00,33.8,26.7,29.53,SSE,147,5.0,9.0,75,0.00,,,0.00,0,Wunderground v.1.15,2013-02-18 15:16:00,
2013-02-18 09:26:00,34.2,27.1,29.52,South,179,4.0,5.0,75,0.00,,,0.00,0,Wunderground v.1.15,2013-02-18 15:26:00,
2013-02-18 09:36:00,24.8,17.7,29.52,SSE,168,3.0,4.0,74,0.00,,,0.00,0,Wunderground v.1.15,2013-02-18 15:36:00,
2013-02-18 09:46:00,34.9,27.1,29.52,South,181,6.0,7.0,73,0.00,,,0.00,0,Wunderground v.1.15,2013-02-18 15:46:00,
2013-02-18 09:56:00,35.7,27.9,29.51,SSW,207,2.0,7.0,73,0.00,,,0.00,0,Wunderground v.1.15,2013-02-18 15:56:00,
2013-02-18 10:01:00,35.4,27.3,29.51,SSW,206,3.0,3.0,72,0.00,,,0.00,0,Wunderground v.1.15,2013-02-18 16:01:00,
2013-02-18 10:16:00,37.2,28.7,29.52,South,186,7.0,7.0,71,0.00,,,0.00,0,Wunderground v.1.15,2013-02-18 16:16:00,
2013-02-18 10:26:00,37.8,28.9,29.52,SSW,203,3.0,8.0,70,0.00,,,0.00,0,Wunderground v.1.15,2013-02-18 16:26:00,
2013-02-18 10:36:00,38.3,29.0,29.51,South,182,3.0,5.0,69,0.00,,,0.00,0,Wunderground v.1.15,2013-02-18 16:36:00,
2013-02-18 10:41:00,38.6,29.3,29.51,SSW,207,6.0,6.0,69,0.00,,,0.00,0,Wunderground v.1.15,2013-02-18 16:41:00,
2013-02-18 10:51:00,38.7,29.4,29.51,SW,218,5.0,5.0,69,0.00,,,0.00,0,Wunderground v.1.15,2013-02-18 16:51:00,
2013-02-18 11:01:00,38.4,29.1,29.51,SSW,206,8.0,8.0,69,0.00,,,0.00,0,Wunderground v.1.15,2013-02-18 17:01:00,
2013-02-18 11:11:00,39.0,29.7,29.50,South,173,8.0,8.0,69,0.00,,,0.00,0,Wunderground v.1.15,2013-02-18 17:11:00,
2013-02-18 11:21:00,39.7,30.0,29.50,SSW,212,3.0,3.0,68,0.00,,,0.00,0,Wunderground v.1.15,2013-02-18 17:21:00,
2013-02-18 11:31:00,40.4,30.7,29.50,SW,218,6.0,6.0,68,0.00,,,0.00,0,Wunderground v.1.15,2013-02-18 17:31:00,
2013-02-18 11:36:00,40.8,31.1,29.50,SW,230,10.0,10.0,68,0.00,,,0.00,0,Wunderground v.1.15,2013-02-18 17:36:00,
2013-02-18 11:46:00,41.3,30.8,29.49,SSW,208,6.0,6.0,66,0.00,,,0.00,0,Wunderground v.1.15,2013-02-18 17:46:00,
2013-02-18 11:56:00,41.4,30.9,29.49,WSW,250,6.0,6.0,66,0.00,,,0.00,0,Wunderground v.1.15,2013-02-18 17:56:00,
2013-02-18 12:06:00,41.5,31.0,29.48,SW,234,3.0,5.0,66,0.00,,,0.00,0,Wunderground v.1.15,2013-02-18 18:06:00,
2013-02-18 12:11:00,41.8,31.3,29.48,SW,217,7.0,7.0,66,0.00,,,0.00,0,Wunderground v.1.15,2013-02-18 18:11:00,
2013-02-18 12:21:00,42.6,31.7,29.47,SW,223,5.0,5.0,65,0.00,,,0.00,0,Wunderground v.1.15,2013-02-18 18:21:00,
2013-02-18 12:31:00,42.6,32.0,29.47,South,176,0.0,0.0,66,0.00,,,0.00,0,Wunderground v.1.15,2013-02-18 18:31:00,
2013-02-18 12:36:00,42.8,31.8,29.46,SSW,208,2.0,2.0,65,0.00,,,0.00,0,Wunderground v.1.15,2013-02-18 18:36:00,
2013-02-18 12:41:00,43.0,32.0,29.46,South,186,6.0,6.0,65,0.00,,,0.00,0,Wunderground v.1.15,2013-02-18 18:41:00,
2013-02-18 12:51:00,43.0,32.0,29.46,SSW,213,4.0,4.0,65,0.00,,,0.00,0,Wunderground v.1.15,2013-02-18 18:51:00,
2013-02-18 13:01:00,43.3,32.3,29.46,SW,226,4.0,4.0,65,0.00,,,0.00,0,Wunderground v.1.15,2013-02-18 19:01:00,
2013-02-18 13:11:00,43.5,32.1,29.46,South,185,0.0,0.0,64,0.00,,,0.00,0,Wunderground v.1.15,2013-02-18 19:11:00,
2013-02-18 13:16:00,43.5,32.5,29.46,SW,221,5.0,5.0,65,0.00,,,0.00,0,Wunderground v.1.15,2013-02-18 19:16:00,
2013-02-18 13:26:00,43.3,32.3,29.45,SW,216,6.0,6.0,65,0.00,,,0.00,0,Wunderground v.1.15,2013-02-18 19:26:00,
2013-02-18 13:31:00,43.2,32.2,29.45,SW,218,2.0,2.0,65,0.00,,,0.00,0,Wunderground v.1.15,2013-02-18 19:31:00,
2013-02-18 13:41:00,43.6,32.2,29.46,WSW,251,6.0,6.0,64,0.00,,,0.00,0,Wunderground v.1.15,2013-02-18 19:41:00,
2013-02-18 13:51:00,43.6,32.6,29.45,West,264,4.0,4.0,65,0.00,,,0.00,0,Wunderground v.1.15,2013-02-18 19:51:00,
2013-02-18 14:01:00,43.5,32.5,29.45,SW,235,3.0,3.0,65,0.00,,,0.00,0,Wunderground v.1.15,2013-02-18 20:01:00,
2013-02-18 14:11:00,44.0,32.6,29.45,WSW,242,2.0,2.0,64,0.00,,,0.00,0,Wunderground v.1.15,2013-02-18 20:11:00,
2013-02-18 14:21:00,44.2,32.8,29.45,SW,220,2.0,2.0,64,0.00,,,0.00,0,Wunderground v.1.15,2013-02-18 20:21:00,
2013-02-18 14:31:00,44.1,32.7,29.46,SW,221,12.0,12.0,64,0.00,,,0.00,0,Wunderground v.1.15,2013-02-18 20:31:00,
2013-02-18 14:41:00,43.0,32.0,29.46,SW,227,7.0,7.0,65,0.00,,,0.00,0,Wunderground v.1.15,2013-02-18 20:41:00,
2013-02-18 14:51:00,43.1,32.5,29.44,West,262,4.0,4.0,66,0.00,,,0.00,0,Wunderground v.1.15,2013-02-18 20:51:00,
2013-02-18 15:06:00,42.2,32.0,29.45,WNW,285,3.0,4.0,67,0.00,,,0.00,0,Wunderground v.1.15,2013-02-18 21:06:00,
2013-02-18 15:11:00,41.6,31.8,29.46,West,274,1.0,1.0,68,0.00,,,0.00,0,Wunderground v.1.15,2013-02-18 21:11:00,
2013-02-18 15:26:00,40.2,31.5,29.45,NW,318,4.0,5.0,71,0.00,,,0.00,0,Wunderground v.1.15,2013-02-18 21:26:00,
2013-02-18 15:36:00,39.7,31.1,29.45,NW,307,6.0,7.0,71,0.00,,,0.00,0,Wunderground v.1.15,2013-02-18 21:36:00,
2013-02-18 15:46:00,39.1,31.2,29.46,WNW,300,10.0,10.0,73,0.00,,,0.00,0,Wunderground v.1.15,2013-02-18 21:46:00,
2013-02-18 15:56:00,38.4,31.2,29.46,WNW,297,9.0,9.0,75,0.00,,,0.00,0,Wunderground v.1.15,2013-02-18 21:56:00,
2013-02-18 16:06:00,37.9,31.0,29.46,WNW,300,7.0,8.0,76,0.00,,,0.00,0,Wunderground v.1.15,2013-02-18 22:06:00,
2013-02-18 16:11:00,37.8,30.9,29.45,WNW,301,9.0,9.0,76,0.00,,,0.00,0,Wunderground v.1.15,2013-02-18 22:11:00,
2013-02-18 16:21:00,37.7,31.1,29.45,NW,307,4.0,4.0,77,0.00,,,0.00,0,Wunderground v.1.15,2013-02-18 22:21:00,
2013-02-18 16:31:00,37.3,31.1,29.45,WNW,299,11.0,11.0,78,0.00,,,0.00,0,Wunderground v.1.15,2013-02-18 22:31:00,
2013-02-18 16:41:00,36.7,30.8,29.46,NW,304,8.0,8.0,79,0.00,,,0.00,0,Wunderground v.1.15,2013-02-18 22:41:00,
2013-02-18 16:51:00,36.4,31.1,29.45,NW,318,5.0,5.0,81,0.00,,,0.00,0,Wunderground v.1.15,2013-02-18 22:51:00,
2013-02-18 16:56:00,36.4,31.4,29.45,WNW,302,4.0,5.0,82,0.00,,,0.00,0,Wunderground v.1.15,2013-02-18 22:56:00,
2013-02-18 17:06:00,36.1,31.4,29.46,NW,311,4.0,4.0,83,0.00,,,0.00,0,Wunderground v.1.15,2013-02-18 23:06:00,
2013-02-18 17:11:00,35.8,31.7,29.46,NW,310,5.0,5.0,85,0.00,,,0.00,0,Wunderground v.1.15,2013-02-18 23:11:00,
2013-02-18 17:21:00,35.4,31.6,29.46,NW,319,5.0,5.0,86,0.00,,,0.00,0,Wunderground v.1.15,2013-02-18 23:21:00,
2013-02-18 17:31:00,35.3,31.8,29.46,NNW,331,3.0,3.0,87,0.00,,,0.00,0,Wunderground v.1.15,2013-02-18 23:31:00,
2013-02-18 17:41:00,35.0,31.8,29.47,NW,307,4.0,4.0,88,0.00,,,0.00,0,Wunderground v.1.15,2013-02-18 23:41:00,
2013-02-18 17:46:00,34.9,31.7,29.46,NW,312,3.0,4.0,88,0.00,,,0.00,0,Wunderground v.1.15,2013-02-18 23:46:00,
2013-02-18 17:56:00,34.7,31.8,29.47,NW,306,4.0,4.0,89,0.00,,,0.00,0,Wunderground v.1.15,2013-02-18 23:56:00,
2013-02-18 18:06:00,34.7,31.8,29.47,NW,306,2.0,4.0,89,0.00,,,0.00,0,Wunderground v.1.15,2013-02-19 00:06:00,
2013-02-18 18:11:00,34.6,32.0,29.47,WNW,298,4.0,4.0,90,0.00,,,0.00,0,Wunderground v.1.15,2013-02-19 00:11:00,
2013-02-18 18:21:00,34.6,31.7,29.46,NW,326,6.0,6.0,89,0.00,,,0.00,0,Wunderground v.1.15,2013-02-19 00:21:00,
2013-02-18 18:31:00,34.7,31.5,29.47,NW,317,7.0,7.0,88,0.00,,,0.00,0,Wunderground v.1.15,2013-02-19 00:31:00,
2013-02-18 18:41:00,34.5,31.3,29.47,NW,313,10.0,10.0,88,0.00,,,0.00,0,Wunderground v.1.15,2013-02-19 00:41:00,
2013-02-18 18:46:00,34.1,30.6,29.46,WNW,301,13.0,13.0,87,0.00,,,0.00,0,Wunderground v.1.15,2013-02-19 00:46:00,
2013-02-18 18:56:00,32.9,29.5,29.46,NW,306,15.0,17.0,87,0.00,,,0.00,0,Wunderground v.1.15,2013-02-19 00:56:00,
2013-02-18 19:01:00,32.4,29.0,29.47,WNW,300,17.0,17.0,87,0.00,,,0.00,0,Wunderground v.1.15,2013-02-19 01:01:00,
2013-02-18 19:11:00,31.9,28.5,29.46,NW,312,8.0,8.0,87,0.00,,,0.00,0,Wunderground v.1.15,2013-02-19 01:11:00,
2013-02-18 19:21:00,31.6,28.2,29.46,NW,312,14.0,14.0,87,0.00,,,0.00,0,Wunderground v.1.15,2013-02-19 01:21:00,
2013-02-18 19:26:00,31.2,27.8,29.46,NW,312,10.0,14.0,87,0.00,,,0.00,0,Wunderground v.1.15,2013-02-19 01:26:00,
2013-02-18 19:36:00,30.9,27.2,29.46,NW,325,10.0,10.0,86,0.00,,,0.00,0,Wunderground v.1.15,2013-02-19 01:36:00,
2013-02-18 19:46:00,30.4,26.4,29.45,NW,315,13.0,13.0,85,0.00,,,0.00,0,Wunderground v.1.15,2013-02-19 01:46:00,
2013-02-18 19:51:00,30.0,25.8,29.45,NW,323,11.0,11.0,84,0.00,,,0.00,0,Wunderground v.1.15,2013-02-19 01:51:00,
2013-02-18 20:01:00,29.7,25.7,29.45,NW,319,17.0,17.0,85,0.00,,,0.00,0,Wunderground v.1.15,2013-02-19 02:01:00,
2013-02-18 20:06:00,29.5,25.5,29.46,NW,320,8.0,17.0,85,0.00,,,0.00,0,Wunderground v.1.15,2013-02-19 02:06:00,
2013-02-18 20:16:00,29.0,25.1,29.46,NW,308,15.0,15.0,85,0.00,,,0.00,0,Wunderground v.1.15,2013-02-19 02:16:00,
2013-02-18 20:26:00,28.3,24.4,29.47,NW,312,10.0,10.0,85,0.00,,,0.00,0,Wunderground v.1.15,2013-02-19 02:26:00,
2013-02-18 20:31:00,28.0,24.1,29.47,WNW,296,14.0,14.0,85,0.00,,,0.00,0,Wunderground v.1.15,2013-02-19 02:31:00,
2013-02-18 20:36:00,28.0,23.8,29.47,NW,319,16.0,16.0,84,0.00,,,0.00,0,Wunderground v.1.15,2013-02-19 02:36:00,
2013-02-18 20:46:00,27.6,23.4,29.47,WNW,298,16.0,16.0,84,0.00,,,0.00,0,Wunderground v.1.15,2013-02-19 02:46:00,
2013-02-18 20:56:00,27.0,22.5,29.47,NW,313,12.0,16.0,83,0.00,,,0.00,0,Wunderground v.1.15,2013-02-19 02:56:00,
2013-02-18 21:16:00,26.1,21.9,29.47,NW,316,12.0,15.0,84,0.00,,,0.00,0,Wunderground v.1.15,2013-02-19 03:16:00,
2013-02-18 21:26:00,25.8,21.6,29.49,NW,306,21.0,21.0,84,0.00,,,0.00,0,Wunderground v.1.15,2013-02-19 03:26:00,
2013-02-18 21:36:00,25.6,21.4,29.48,NW,308,16.0,16.0,84,0.00,,,0.00,0,Wunderground v.1.15,2013-02-19 03:36:00,
2013-02-18 21:46:00,24.9,20.5,29.49,WNW,293,18.0,18.0,83,0.00,,,0.00,0,Wunderground v.1.15,2013-02-19 03:46:00,
2013-02-18 21:56:00,24.3,19.9,29.48,WNW,300,14.0,16.0,83,0.00,,,0.00,0,Wunderground v.1.15,2013-02-19 03:56:00,
2013-02-18 22:01:00,24.0,19.6,29.49,WNW,303,19.0,19.0,83,0.00,,,0.00,0,Wunderground v.1.15,2013-02-19 04:01:00,
2013-02-18 22:16:00,23.3,18.9,29.50,WNW,300,19.0,19.0,83,0.00,,,0.00,0,Wunderground v.1.15,2013-02-19 04:16:00,
2013-02-18 22:26:00,23.0,18.6,29.50,WNW,300,19.0,19.0,83,0.00,,,0.00,0,Wunderground v.1.15,2013-02-19 04:26:00,
2013-02-18 22:31:00,22.7,18.6,29.50,NW,305,13.0,13.0,84,0.00,,,0.00,0,Wunderground v.1.15,2013-02-19 04:31:00,
2013-02-18 22:41:00,22.4,18.6,29.51,WNW,299,11.0,11.0,85,0.00,,,0.00,0,Wunderground v.1.15,2013-02-19 04:41:00,
2013-02-18 22:51:00,22.0,18.5,29.51,NW,317,12.0,12.0,86,0.00,,,0.00,0,Wunderground v.1.15,2013-02-19 04:51:00,
2013-02-18 23:01:00,21.6,18.6,29.52,NW,313,10.0,10.0,88,0.00,,,0.00,0,Wunderground v.1.15,2013-02-19 05:01:00,
2013-02-18 23:06:00,21.6,18.9,29.52,WNW,301,24.0,24.0,89,0.00,,,0.00,0,Wunderground v.1.15,2013-02-19 05:06:00,
2013-02-18 23:11:00,21.5,18.8,29.52,NW,307,15.0,15.0,89,0.00,,,0.00,0,Wunderground v.1.15,2013-02-19 05:11:00,
2013-02-18 23:16:00,21.4,18.7,29.52,WNW,300,13.0,15.0,89,0.00,,,0.00,0,Wunderground v.1.15,2013-02-19 05:16:00,
2013-02-18 23:21:00,21.3,18.6,29.53,NW,317,14.0,14.0,89,0.00,,,0.00,0,Wunderground v.1.15,2013-02-19 05:21:00,
2013-02-18 23:31:00,21.2,17.9,29.53,NNW,327,19.0,19.0,87,0.00,,,0.00,0,Wunderground v.1.15,2013-02-19 05:31:00,
2013-02-18 23:41:00,21.1,18.1,29.53,WNW,292,12.0,12.0,88,0.00,,,0.00,0,Wunderground v.1.15,2013-02-19 05:41:00,
2013-02-18 23:46:00,20.8,17.8,29.53,NW,305,16.0,16.0,88,0.00,,,0.00,0,Wunderground v.1.15,2013-02-19 05:46:00,
2013-02-18 23:56:00,20.5,17.8,29.54,NW,306,14.0,17.0,89,0.00,,,0.00,0,Wunderground v.1.15,2013-02-19 05:56:00,